Regional Weather Roundup
Issued by NWS Little Rock, AR

Home | Current Version | Previous Version | Text Only | Print | Product List | Glossary Off
Versions: 1 2 3 4 5 6 7 8 9 10 11 12 13 14 15 16 17 18 19 20 21 22 23 24 25 26 27 28 29 30 31 32 33 34 35 36 37 38 39 40 41 42 43 44 45 46 47 48 49 50

000
ASUS44 KLZK 241105
RWRLZK

WEATHER ROUNDUP FOR ARKANSAS
NATIONAL WEATHER SERVICE LITTLE ROCK AR
500 AM CST SAT JAN 24 2015

NOTE: "FAIR" INDICATES FEW OR NO CLOUDS BELOW 12,000 FEET WITH NO
SIGNIFICANT WEATHER AND/OR OBSTRUCTIONS TO VISIBILITY.

ARZ001-003-010-029-241200-
NORTHWEST ARKANSAS

CITY           SKY/WX    TMP DP  RH WIND       PRES   REMARKS
FAYETTEVILLE   CLEAR     23  20  88 CALM      30.00F
FORT SMITH     CLEAR     28  24  85 CALM      30.05F
HARRISON       CLEAR     37  24  59 W7        29.96F
BENTONVILLE    CLEAR     28  19  69 SW7       30.00S WCI  21
ROGERS         CLEAR     29  23  78 W8        30.00R WCI  21
SILOAM SPGS    CLEAR     27  18  69 SW5       30.02S WCI  21
HIGHFILL       CLEAR     29  22  75 SW7       29.99S WCI  22
$$

ARZ004-005-016-241200-
NORTH CENTRAL ARKANSAS

CITY           SKY/WX    TMP DP  RH WIND       PRES   REMARKS
BATESVILLE     CLEAR     27  21  80 CALM      29.98F
FLIPPIN        CLEAR     25  18  74 CALM      29.96F
MTN HOME       CLEAR     29  26  89 CALM      29.96S
$$

ARZ040-041-241200-
WEST CENTRAL ARKANSAS

CITY           SKY/WX    TMP DP  RH WIND       PRES   REMARKS
MENA           CLEAR     34  28  80 W3        30.05F
MOUNT IDA      CLEAR     30  25  81 CALM      30.02S
$$

ARZ009-017-025-026-028-241200-
NORTHEAST ARKANSAS

CITY           SKY/WX    TMP DP  RH WIND       PRES   REMARKS
JONESBORO      CLEAR     28  25  88 W7        29.99F WCI  21
NEWPORT        CLEAR     26  23  88 SW7       30.00F WCI  18
WALNUT RIDGE   CLEAR     28  21  74 SW8       29.98S WCI  20
BLYTHEVILLE    CLEAR     26  25  96 SW6       29.98F FOG     WCI  19
$$

ARZ022-023-033-042-044-241200-
CENTRAL ARKANSAS

CITY           SKY/WX    TMP DP  RH WIND       PRES   REMARKS
LITTLE ROCK    CLEAR     30  25  81 W6        30.05F WCI  24
N LITTLE ROCK    N/A     33  27  80 W5        30.05F WCI  28
JACKSONVILLE   CLEAR     24  21  88 CALM      30.03F
SEARCY         CLEAR     21  19  92 CALM      30.04S
HOT SPRINGS    CLEAR     29  26  89 NW5       30.05F WCI  24
RUSSELLVILLE   CLEAR     26  23  88 CALM      30.03F
CLINTON        FAIR      21  19  93 CALM      30.03F
$$

ARZ036-241200-
EAST ARKANSAS

CITY           SKY/WX    TMP DP  RH WIND       PRES   REMARKS
WEST MEMPHIS   CLEAR     29  27  92 W3        30.00F
$$

ARZ050-053-066-070-073-241200-
SOUTHWEST ARKANSAS

CITY           SKY/WX    TMP DP  RH WIND       PRES   REMARKS
ARKADELPHIA    FAIR      27  26  96 CALM      30.09S
CAMDEN         FOG       25  23  93 CALM      30.09F VSB 1/4
TEXARKANA      CLEAR     30  27  88 SW6       30.10S WCI  24
EL DORADO      CLEAR     27  26  96 CALM      30.10S
DE QUEEN       CLEAR     24  23  96 CALM      30.09R
$$

ARZ056-057-069-241200-
SOUTHEAST ARKANSAS

CITY           SKY/WX    TMP DP  RH WIND       PRES   REMARKS
PINE BLUFF     CLEAR     29  25  85 SW5       30.07S WCI  24
STUTTGART      CLEAR     30  27  86 W7        30.05S WCI  23
MONTICELLO     CLEAR     30  28  92 W6        30.07F WCI  24

$$





USA.gov is the U.S. government's official web portal to all federal, state and local government web resources and services.